This is the latest recevied weather packets stored in our database for station/object K2RMB. If no packets are shown the sender has not sent any weather packets the latest 10 day(s).
| Time | Temp. | Humidity | Pressure | Rain* | Wind** | Luminosity | Snow |
|---|---|---|---|---|---|---|---|
| 1777461236 | 9.44° C | 59% | 1017.1 hPa | 0 mm | - | 84 W/m² | - |
| 1777460931 | 9.44° C | 61% | 1017.1 hPa | 0 mm | - | 86 W/m² | - |
| 1777460627 | 8.89° C | 62% | 1017.1 hPa | 0 mm | - | 72 W/m² | - |
| 1777460323 | 8.89° C | 62% | 1017.1 hPa | 0 mm | - | 55 W/m² | - |
| 1777460019 | 8.33° C | 62% | 1017.1 hPa | 0 mm | - | 56 W/m² | - |
| 1777459717 | 8.33° C | 64% | 1017.1 hPa | 0 mm | - | 50 W/m² | - |
| 1777459413 | 8.33° C | 63% | 1016.7 hPa | 0 mm | - | 47 W/m² | - |
| 1777459111 | 8.33° C | 64% | 1017.1 hPa | 0 mm | - | 41 W/m² | - |
| 1777458808 | 8.33° C | 65% | 1017.1 hPa | 0 mm | - | 35 W/m² | - |
| 1777458504 | 7.78° C | 63% | 1017.1 hPa | 0 mm | - | 29 W/m² | - |
| 1777458202 | 7.78° C | 63% | 1016.7 hPa | 0 mm | - | 23 W/m² | - |
| 1777457896 | 7.78° C | 63% | 1016.7 hPa | 0 mm | - | 17 W/m² | - |
| 1777457592 | 7.78° C | 65% | 1016.7 hPa | 0 mm | - | 14 W/m² | - |
| 1777457287 | 8.33° C | 63% | 1016.7 hPa | 0 mm | - | 11 W/m² | - |
| 1777456983 | 8.33° C | 61% | 1017.1 hPa | 0 mm | - | 6 W/m² | - |
| 1777456679 | 8.33° C | 62% | 1017.1 hPa | 0 mm | - | 4 W/m² | - |
| 1777456373 | 7.78° C | 63% | 1016.7 hPa | 0 mm | - | 3 W/m² | - |
| 1777456070 | 7.78° C | 62% | 1017.1 hPa | 0 mm | - | 2 W/m² | - |
| 1777455766 | 7.78° C | 62% | 1017.1 hPa | 0 mm | - | 1 W/m² | - |
| 1777455463 | 7.78° C | 60% | 1017.1 hPa | 0 mm | - | 0 W/m² | - |
| 1777455159 | 8.33° C | 59% | 1017.1 hPa | 0 mm | - | 0 W/m² | - |
| 1777454857 | 7.78° C | 63% | 1017.1 hPa | 0 mm | - | 0 W/m² | - |
| 1777454553 | 7.78° C | 60% | 1016.7 hPa | 0 mm | - | 0 W/m² | - |
| 1777454249 | 7.78° C | 61% | 1017.1 hPa | 0 mm | - | 0 W/m² | - |
| 1777453947 | 7.78° C | 61% | 1017.1 hPa | 0 mm | - | 0 W/m² | - |
* Rain latest hour (hover to see other rain measurements)
** Current wind speed in m/s (hover to see current wind gust speed)